DK8RG-15 Weather Reports


time (UTC)temp
F
wind
direction
speed
knots
gust
knots
rain 1hr
in
rain 24hr
in
rain mn
in
humidity
%
barometer
mb
20260507070020 51 0.0 0.0 0.08 0.63 0.63 88 1005.4
20260507065020 52 0.0 0.0 0.08 0.63 0.63 88 1005.4
20260507064020 52 0.0 0.0 0.08 0.63 0.63 88 1005.4
20260507063019 52 0.0 0.0 0.04 0.59 0.59 88 1005.4
20260507062021 52 0.0 0.0 0.00 0.55 0.55 88 1005.4
20260507061020 52 0.0 0.0 0.00 0.55 0.55 88 1005.5
20260507060020 52 0.0 0.0 0.00 0.55 0.55 88 1005.5
20260507055020 52 0.0 0.0 0.00 0.55 0.55 88 1005.5
20260507054019 52 0.0 0.0 0.04 0.55 0.55 88 1005.6
20260507053020 51 0.0 0.0 0.04 0.55 0.55 89 1005.5
20260507052019 52 0.0 0.0 0.04 0.55 0.55 89 1005.6
20260507051020 52 0.0 0.0 0.08 0.55 0.55 89 1005.6
20260507050019 52 0.0 0.0 0.08 0.55 0.55 89 1005.6
20260507045019 52 0.0 0.0 0.12 0.55 0.55 89 1005.6
20260507044020 52 0.0 0.0 0.08 0.51 0.51 89 1004.7
20260507043019 52 0.0 0.0 0.08 0.51 0.51 89 1004.7
20260507042020 52 0.0 0.0 0.08 0.51 0.51 89 1004.7
20260507041019 52 0.0 0.0 0.08 0.47 0.47 89 1004.7
20260507040019 52 0.0 0.0 0.08 0.47 0.47 89 1004.7
20260507035019 52 0.0 0.0 0.08 0.43 0.43 89 1004.7
20260507034020 52 0.0 0.0 0.08 0.43 0.43 89 1004.7
20260507033020 52 0.0 0.0 0.12 0.43 0.43 89 1004.7
20260507032019 52 0.0 0.0 0.12 0.43 0.43 89 1004.8
20260507031019 52 0.0 0.0 0.08 0.39 0.39 89 1004.7
20260507030019 52 0.0 0.0 0.08 0.39 0.39 89 1004.7
20260507025020 52 0.0 0.0 0.04 0.35 0.35 89 1004.7
20260507024020 52 0.0 0.0 0.04 0.35 0.35 89 1004.7
20260507023019 52 0.0 0.0 0.00 0.31 0.31 89 1004.6
20260507022020 52 0.0 0.0 0.04 0.31 0.31 89 1004.6
20260507021019 52 0.0 0.0 0.04 0.31 0.31 89 1004.6
20260507020019 52 0.0 0.0 0.04 0.31 0.31 89 1004.6
20260507015019 52 0.0 0.0 0.04 0.31 0.31 89 1004.6
20260507014020 52 0.0 0.0 0.04 0.31 0.31 89 1004.6
20260507013019 52 0.0 0.0 0.04 0.31 0.31 89 1004.6
20260507012020 52 0.0 0.0 0.04 0.28 0.28 88 1004.6
20260507011020 52 0.0 0.0 0.08 0.28 0.28 88 1004.6
20260507010019 52 0.0 0.0 0.12 0.28 0.28 88 1004.6
20260507005020 52 0.0 0.0 0.16 0.28 0.28 88 1004.6
20260507004021 52 0.0 0.0 0.20 0.28 0.28 88 1004.6
20260507003019 52 0.0 0.0 0.20 0.28 0.28 87 1004.6
20260507002019 52 0.0 0.0 0.20 0.24 0.24 87 1004.6
20260507001020 52 0.0 0.0 0.20 0.20 0.20 87 1004.6
20260507000020 52 0.0 0.0 0.16 0.16 0.16 87 1004.5
20260506235019 52 0.0 0.0 0.12 0.12 0.12 86 1004.5
20260506234019 52 0.0 0.0 0.08 0.08 0.08 85 1004.6
20260506233019 53 0.0 0.0 0.08 0.08 0.08 85 1004.6
20260506232019 54 0.0 0.0 0.04 0.04 0.04 84 1004.7
20260506231019 54 0.0 0.0 0.00 0.00 0.00 82 1004.7
20260506230022 54 0.0 0.0 0.00 0.00 0.00 81 1004.6
20260506225020 54 0.0 0.0 0.00 0.00 0.00 81 1003.6
20260506224021 54 0.0 0.0 0.00 0.00 0.00 80 1003.7
20260506223021 54 0.0 0.0 0.00 0.00 0.00 80 1003.6
20260506220037 54 0.0 0.0 0.00 0.00 0.00 79 1003.6
20260506215017 54 0.0 0.0 0.00 0.00 0.00 79 1003.5
20260506214017 54 0.0 0.0 0.00 0.00 0.00 79 1003.5
20260506213017 54 0.0 0.0 0.00 0.04 0.00 79 1003.4
20260506212017 54 0.0 0.0 0.00 0.04 0.00 78 1003.4
20260506211017 54 0.0 0.0 0.00 0.08 0.00 78 1003.4
20260506210017 54 0.0 0.0 0.00 0.16 0.00 76 1003.4
20260506205018 54 0.0 0.0 0.00 0.16 0.00 75 1003.4
20260506204017 55 37 0.9 0.9 0.00 0.20 0.00 74 1003.4
20260506203017 55 11 0.9 0.9 0.00 0.24 0.00 74 1003.5
20260506202016 55 351 0.9 0.9 0.00 0.24 0.00 74 1003.5
20260506201017 55 14 0.9 0.9 0.00 0.28 0.00 76 1003.5
20260506200017 56 32 0.9 0.9 0.00 0.32 0.00 78 1003.6
20260506195037 57 38 1.7 1.7 0.00 0.35 0.00 79 1003.7
20260506194017 58 63 1.7 1.7 0.00 0.39 0.00 76 1002.7
20260506193017 59 33 1.7 1.7 0.00 0.51 0.00 72 1002.7
20260506192017 59 0.0 0.0 0.00 0.59 0.00 69 1002.7
20260506191017 59 0.0 0.0 0.00 0.59 0.00 67 1002.6
20260506190018 61 0.0 0.0 0.00 0.59 0.00 65 1002.7
20260506185017 61 0.0 0.0 0.00 0.59 0.00 64 1001.7
20260506184017 61 0.0 0.0 0.00 0.59 0.00 64 1001.7
20260506183017 61 0.0 0.0 0.00 0.59 0.00 64 1001.7
20260506182016 61 0.0 0.0 0.00 0.59 0.00 63 1001.6
20260506181017 62 0.0 0.0 0.00 0.59 0.00 61 1001.6
20260506180017 63 0.0 0.0 0.00 0.59 0.00 58 1001.6
20260506175016 63 0.0 0.0 0.00 0.59 0.00 56 1001.6
20260506174016 64 0.0 0.0 0.00 0.59 0.00 55 1001.7
20260506173017 64 0.0 0.0 0.00 0.59 0.00 54 1001.7
20260506172017 64 0.0 0.0 0.00 0.59 0.00 53 1001.7
20260506171017 64 0.0 0.0 0.00 0.59 0.00 53 1001.7
20260506170017 64 0.0 0.0 0.00 0.59 0.00 52 1001.7
20260506165017 65 0.0 0.0 0.00 0.59 0.00 50 1001.7
20260506164016 66 0.0 0.0 0.00 0.59 0.00 48 1001.8
20260506163018 67 331 0.9 0.9 0.00 0.59 0.00 48 1001.7
20260506162017 68 0.0 0.0 0.00 0.59 0.00 50 1001.7
20260506161017 67 0.0 0.0 0.00 0.59 0.00 51 1001.7
20260506160017 67 0.0 0.0 0.00 0.59 0.00 51 1001.7
20260506155016 67 0.0 0.0 0.00 0.59 0.00 52 1001.7
20260506154018 66 0.0 0.0 0.00 0.59 0.00 51 1001.7
20260506153017 67 246 0.9 0.9 0.00 0.59 0.00 49 1001.7
20260506152016 68 256 0.9 0.9 0.00 0.59 0.00 50 1001.8
20260506151017 67 257 0.9 0.9 0.00 0.59 0.00 52 1001.7
20260506150018 67 275 0.9 0.9 0.00 0.59 0.00 52 1002.8
20260506145017 67 282 0.9 0.9 0.00 0.59 0.00 52 1001.8
20260506144017 66 301 0.9 0.9 0.00 0.59 0.00 54 1002.8
20260506143018 65 0.0 0.0 0.00 0.59 0.00 55 1002.7
20260506142016 64 0.0 0.0 0.00 0.59 0.00 55 1002.7
20260506141017 64 0.0 0.0 0.00 0.59 0.00 56 1002.7
20260506140018 64 0.0 0.0 0.00 0.59 0.00 57 1002.7
20260506135017 64 0.0 0.0 0.00 0.59 0.00 57 1002.7
20260506134018 64 0.0 0.0 0.00 0.59 0.00 56 1002.7
20260506133018 65 199 1.7 1.7 0.00 0.59 0.00 56 1002.7
20260506132017 66 230 0.9 0.9 0.00 0.59 0.00 56 1002.7
20260506131018 64 0.0 0.0 0.00 0.59 0.00 56 1002.7
20260506130018 65 0.0 0.0 0.00 0.59 0.00 56 1002.7
20260506125018 64 241 1.7 1.7 0.00 0.59 0.00 57 1002.7
20260506124017 64 213 1.7 1.7 0.00 0.59 0.00 57 1002.7
20260506123018 64 0.0 0.0 0.00 0.59 0.00 58 1002.6
20260506122017 64 270 0.9 0.9 0.00 0.59 0.00 58 1002.6
20260506121018 64 239 0.9 0.9 0.00 0.59 0.00 58 1002.6
20260506120017 63 252 0.9 0.9 0.00 0.59 0.00 59 1002.5
20260506115017 63 231 1.7 1.7 0.00 0.59 0.00 59 1002.5
20260506114017 64 194 1.7 1.7 0.00 0.59 0.00 58 1002.6
20260506113019 64 202 0.9 0.9 0.00 0.59 0.00 59 1002.6
20260506112017 64 164 1.7 1.7 0.00 0.59 0.00 58 1002.6
20260506111019 64 160 1.7 1.7 0.00 0.59 0.00 60 1002.6
20260506110017 63 165 0.9 0.9 0.00 0.59 0.00 57 1002.5
20260506105017 63 178 0.9 0.9 0.00 0.59 0.00 57 1002.5
20260506104017 64 159 0.9 0.9 0.00 0.59 0.00 60 1002.6
20260506103018 63 170 0.9 0.9 0.00 0.59 0.00 61 1002.5
20260506102019 62 153 0.9 0.9 0.00 0.59 0.00 63 1002.5
20260506101018 61 188 1.7 1.7 0.00 0.59 0.00 64 1002.5
20260506100019 62 229 1.7 1.7 0.00 0.59 0.00 63 1002.5
20260506095018 62 270 1.7 1.7 0.00 0.59 0.00 65 1002.5
20260506094018 60 252 1.7 1.7 0.00 0.59 0.00 67 1002.5
20260506093018 59 240 1.7 1.7 0.00 0.59 0.00 67 1002.4
20260506092029 59 228 1.7 1.7 0.00 0.59 0.00 67 1003.4
20260506091018 59 220 0.9 0.9 0.00 0.59 0.00 69 1002.4
20260506090018 59 241 1.7 1.7 0.00 0.59 0.00 69 1002.4
20260506085019 59 218 0.9 0.9 0.00 0.59 0.00 69 1002.4
20260506084018 59 255 2.6 2.6 0.00 0.59 0.00 69 1002.4
20260506083017 59 214 2.6 2.6 0.00 0.59 0.00 69 1002.4
20260506082018 59 224 1.7 1.7 0.00 0.59 0.00 68 1002.5
20260506081018 59 187 1.7 1.7 0.00 0.59 0.00 69 1002.5
20260506073018 59 108 1.7 1.7 0.00 0.59 0.00 71 1002.5
20260506072019 59 128 1.7 1.7 0.00 0.59 0.00 72 1002.6
20260506071018 59 113 1.7 1.7 0.00 0.59 0.00 73 1002.6